This is the latest recevied weather packets stored in our database for station/object KD0OXW. If no packets are shown the sender has not sent any weather packets the latest 10 day(s).
| Time | Temp. | Humidity | Pressure | Rain* | Wind** | Luminosity | Snow |
|---|---|---|---|---|---|---|---|
| 1777758798 | 15.56° C | 34% | 1012.6 hPa | 0 mm | - | - | - |
| 1777758498 | 15.56° C | 33% | 1012.7 hPa | 0 mm | - | - | - |
| 1777758198 | 15° C | 34% | 1012.7 hPa | 0 mm | - | - | - |
| 1777757898 | 15° C | 33% | 1012.6 hPa | 0 mm | - | - | - |
| 1777757598 | 15.56° C | 31% | 1012.7 hPa | 0 mm | - | - | - |
| 1777757298 | 15.56° C | 31% | 1012.8 hPa | 0 mm | - | - | - |
| 1777756998 | 16.11° C | 33% | 1012.8 hPa | 0 mm | - | - | - |
| 1777756698 | 15.56° C | 34% | 1012.8 hPa | 0 mm | - | - | - |
| 1777756398 | 15° C | 33% | 1013.1 hPa | 0 mm | - | - | - |
| 1777756098 | 15° C | 33% | 1013.1 hPa | 0 mm | - | - | - |
| 1777755798 | 15° C | 33% | 1013.2 hPa | 0 mm | - | - | - |
| 1777755498 | 15° C | 31% | 1013.3 hPa | 0 mm | - | - | - |
| 1777755198 | 15° C | 32% | 1013.3 hPa | 0 mm | - | - | - |
| 1777754898 | 14.44° C | 35% | 1013.4 hPa | 0 mm | - | - | - |
| 1777754598 | 13.89° C | 32% | 1013.5 hPa | 0 mm | - | - | - |
| 1777754298 | 13.89° C | 33% | 1013.6 hPa | 0 mm | - | - | - |
| 1777753998 | 13.89° C | 31% | 1013.6 hPa | 0 mm | - | - | - |
| 1777753698 | 14.44° C | 31% | 1013.7 hPa | 0 mm | - | - | - |
| 1777753398 | 14.44° C | 31% | 1013.8 hPa | 0 mm | - | - | - |
| 1777753098 | 15° C | 29% | 1013.8 hPa | 0 mm | - | - | - |
| 1777752798 | 15° C | 30% | 1013.8 hPa | 0 mm | - | - | - |
| 1777752498 | 15° C | 30% | 1014 hPa | 0 mm | - | - | - |
| 1777752198 | 15° C | 33% | 1013.9 hPa | 0 mm | - | - | - |
| 1777751898 | 15° C | 31% | 1014 hPa | 0 mm | - | - | - |
| 1777751598 | 15° C | 38% | 1014.1 hPa | 0 mm | - | - | - |
* Rain latest hour (hover to see other rain measurements)
** Current wind speed in m/s (hover to see current wind gust speed)